Station KMXA2 - Kodiak Matson Crane, AK Image indicating link to RSS feed of recent meteorological observations for station KMXA2


Conditions at KMXA2 as of
(12:04 pm AKDT)
2004 GMT on 07/19/2024:
     

Click on the graph icon in the table below to see a time series plot of the last five days of that observation.

5-day plot - Wind Speed Wind Speed (WSPD): 0 kts
5-day plot - Wind Gust Wind Gust (GST): 4 kts
5-day plot - Air Temperature Air Temperature (ATMP): 57.9 °F
5-day plot - Dew Point Dew Point (DEWP): 49.8 °F
5-day plot - Wind Speed at 10 Meters Wind Speed at 10 meters (WSPD10M): 2 kts
5-day plot - Wind Speed at 20 Meters Wind Speed at 20 meters (WSPD20M): 2 kts
5-day plot -  Wind Speed, Wind Gust and Atmospheric Pressure Combined plot of Wind Speed, Gust, and Air Pressure
Previous observations
TIME
(AKDT)
5-day plot - Wind Direction
WDIR
 
5-day plot - Wind Speed
WSPD
kts
5-day plot - Wind Gust
GST
kts
5-day plot - Wave Height
WVHT
ft
5-day plot - Dominant Wave Period
DPD
sec
5-day plot - Average Wave Period
APD
sec
5-day plot - Mean Wave Direction
MWD
 
5-day plot - Atmospheric Pressure
PRES
in
5-day plot - Pressure Tendency
PTDY
in
5-day plot - Air Temperature
ATMP
°F
5-day plot - Water Temperature
WTMP
°F
5-day plot - Dew Point
DEWP
°F
5-day plot - Salinity
SAL
psu
5-day plot - Visibility
VIS
nmi
5-day plot - Tide (above MLLW)
TIDE
ft
2024-07-19 11:54 am NW 1 3------ 58.3- 49.8---
2024-07-19 11:44 am- 0 3------ 58.6- 50.0---
2024-07-19 11:34 am- 0 2------ 58.3- 50.2---
2024-07-19 11:24 am- 0 2------ 58.1- 50.2---
2024-07-19 11:14 am SE 1 3------ 56.7- 49.8---
2024-07-19 11:04 amSSE 1 3------ 57.0- 50.0---
2024-07-19 10:54 am- 0 3------ 57.0- 50.2---
2024-07-19 10:44 am- 0 3------ 56.7- 50.2---
2024-07-19 10:34 am- 0 2------ 56.7- 50.2---
2024-07-19 10:24 am- 0 3------ 55.4- 50.0---
2024-07-19 10:14 am S 1 3------ 54.1- 49.5---
2024-07-19 10:04 amSSW 1 3------ 54.0- 49.5---
2024-07-19 09:54 am- 0 2------ 54.5- 49.8---
2024-07-19 09:44 am- 0 2------ 53.8- 49.5---
2024-07-19 09:34 amENE 1 3------ 53.6- 49.5---
2024-07-19 09:24 am NE 1 3------ 53.2- 49.1---
2024-07-19 09:14 amENE 1 3------ 53.1- 48.9---
2024-07-19 09:04 amENE 1 4------ 53.2- 48.9---
2024-07-19 08:54 amSSW 2 5------ 52.7- 48.7---
2024-07-19 08:44 am SW 2 7------ 52.3- 48.6---
2024-07-19 08:34 am SW 3 8------ 52.0- 48.4---
2024-07-19 08:24 amWSW 2 7------ 52.2- 48.4---
2024-07-19 08:14 amWSW 2 5------ 51.8- 48.4---
2024-07-19 08:04 am E 1 4------ 51.6- 48.4---
2024-07-19 07:54 am- 0 2------ 51.6- 48.9---
2024-07-19 07:44 am- 0 1------ 51.6- 49.1---
2024-07-19 07:34 am- 0 1------ 51.6- 49.1---
2024-07-19 07:24 am- 0 1------ 51.4- 48.9---
2024-07-19 07:14 am- 0 1------ 51.4- 48.7---
2024-07-19 07:04 am- 0 2------ 51.4- 48.7---
2024-07-19 06:54 am- 0 2------ 51.3- 48.9---
2024-07-19 06:44 am NW 1 3------ 51.3- 48.7---
2024-07-19 06:34 amNNE 2 5------ 51.4- 48.4---
2024-07-19 06:24 am N 2 6------ 51.4- 48.4---
2024-07-19 06:14 amENE 1 5------ 51.4- 48.6---
2024-07-19 06:04 amNNE 2 5------ 51.3- 48.6---
2024-07-19 05:54 am NE 2 4------ 51.3- 48.7---
2024-07-19 05:44 am NE 3 7------ 51.3- 48.7---
2024-07-19 05:34 amNNW 4 7------ 51.1- 48.7---
2024-07-19 05:24 am N 3 6------ 50.9- 48.7---
2024-07-19 05:14 am N 3 7------ 50.7- 48.7---
2024-07-19 05:04 amNNW 2 5------ 50.7- 48.9---
2024-07-19 04:54 amNNE 3 6------ 50.7- 48.9---
2024-07-19 04:44 am N 3 4------ 50.7- 49.1---
2024-07-19 04:34 am N 2 4------ 50.7- 49.1---
2024-07-19 04:24 amNNE 3 7------ 50.9- 49.1---
2024-07-19 04:14 amNNW 3 8------ 50.9- 48.9---
2024-07-19 04:04 amNNW 5 8------ 50.9- 48.7---
2024-07-19 03:54 amNNW 6 9------ 51.1- 48.7---
2024-07-19 03:44 am N 6 8------ 51.1- 48.6---
2024-07-19 03:34 am N 6 9------ 51.1- 48.4---
2024-07-19 03:24 am N 8 12------ 51.1- 48.2---
2024-07-19 03:14 am N 9 12------ 50.9- 48.2---
2024-07-19 03:04 am N 8 12------ 50.9- 48.4---
2024-07-19 02:54 am N 8 12------ 50.7- 48.4---
2024-07-19 02:44 am N 10 14------ 50.7- 48.4---
2024-07-19 02:34 am N 10 14------ 50.7- 48.6---
2024-07-19 02:24 am N 11 14------ 50.7- 48.6---
2024-07-19 02:14 am N 11 15------ 50.5- 48.6---
2024-07-19 02:04 am N 11 15------ 50.7- 48.6---
2024-07-19 01:54 am N 11 15------ 50.7- 48.6---
2024-07-19 01:44 am N 10 13------ 50.5- 48.7---
2024-07-19 01:34 amNNE 9 12------ 50.2- 49.3---
2024-07-19 01:24 amNNE 7 10------ 50.4- 49.5---
2024-07-19 01:14 am N 6 10------ 50.5- 49.6---
2024-07-19 01:04 am N 6 9------ 50.7- 49.6---
2024-07-19 12:54 am N 5 9------ 50.9- 49.5---
2024-07-19 12:44 am N 6 9------ 50.9- 49.5---
2024-07-19 12:34 amNNE 7 11------ 50.7- 49.3---
2024-07-19 12:24 amNNE 8 12------ 50.7- 49.3---
2024-07-19 12:14 amNNE 6 12------ 50.7- 49.6---
2024-07-19 12:04 amNNE 4 9------ 50.9- 49.8---
2024-07-18 11:54 pm NE 4 9------ 50.7- 49.6---
2024-07-18 11:44 pmNNE 5 10------ 50.5- 49.5---
2024-07-18 11:34 pm NE 6 11------ 50.7- 49.6---
2024-07-18 11:24 pm NE 7 13------ 50.9- 49.5---
2024-07-18 11:14 pm NE 5 9------ 51.1- 49.5---
2024-07-18 11:04 pm NE 4 8------ 51.1- 49.5---
2024-07-18 10:54 pm NE 4 9------ 50.9- 49.3---
2024-07-18 10:44 pm NE 5 12------ 50.9- 49.3---
2024-07-18 10:34 pm NE 7 12------ 50.9- 49.3---
2024-07-18 10:24 pm NE 7 12------ 50.9- 48.9---
2024-07-18 10:14 pm NE 6 13------ 50.9- 48.9---
2024-07-18 10:04 pm NE 5 13------ 51.1- 49.1---
2024-07-18 09:54 pm NE 4 9------ 51.3- 48.9---
2024-07-18 09:44 pm NE 4 8------ 51.4- 48.9---
2024-07-18 09:34 pm NE 4 10------ 51.6- 48.7---
2024-07-18 09:24 pm NE 5 10------ 51.8- 48.7---
2024-07-18 09:14 pmNNE 6 10------ 51.8- 48.6---
2024-07-18 09:04 pmNNE 6 10------ 52.2- 48.6---
2024-07-18 08:54 pmNNE 5 10------ 52.3- 48.7---
2024-07-18 08:44 pmNNE 5 8------ 52.3- 48.6---
2024-07-18 08:34 pmNNE 5 8------ 52.3- 48.6---
2024-07-18 08:24 pm NE 4 8------ 52.5- 48.7---
2024-07-18 08:14 pm NE 4 7------ 52.5- 48.7---
2024-07-18 08:04 pmNNE 3 7------ 52.7- 48.7---
2024-07-18 07:54 pm NE 4 7------ 52.9- 48.7---
2024-07-18 07:44 pm NE 4 7------ 52.9- 48.7---
2024-07-18 07:34 pm NE 5 10------ 52.7- 48.9---
2024-07-18 07:24 pm NE 4 7------ 52.7- 48.7---
2024-07-18 07:14 pm NE 3 6------ 52.7- 48.7---
2024-07-18 07:04 pm NE 4 8------ 52.5- 48.7---
2024-07-18 06:54 pm NE 4 8------ 52.3- 48.7---
2024-07-18 06:44 pm NE 5 10------ 52.3- 48.6---
2024-07-18 06:34 pmNNE 5 11------ 52.2- 48.7---
2024-07-18 06:24 pmNNE 4 9------ 52.2- 48.7---
2024-07-18 06:14 pmNNE 5 10------ 52.0- 48.6---
2024-07-18 06:04 pm NE 5 9------ 51.8- 48.6---
2024-07-18 05:54 pmNNE 3 6------ 51.6- 48.6---
2024-07-18 05:44 pmNNE 4 7------ 51.6- 48.6---
2024-07-18 05:34 pmNNE 5 8------ 51.8- 48.6---
2024-07-18 05:24 pmNNE 6 10------ 52.0- 48.6---
2024-07-18 05:14 pmNNE 5 10------ 52.0- 48.6---
2024-07-18 05:04 pmNNE 6 11------ 52.2- 48.6---
2024-07-18 04:54 pmNNE 7 10------ 52.2- 48.4---
2024-07-18 04:44 pmNNE 7 10------ 52.2- 48.4---
2024-07-18 04:34 pmNNE 6 10------ 52.3- 48.2---
2024-07-18 04:24 pmNNE 6 9------ 52.3- 48.0---
2024-07-18 04:14 pmNNE 7 10------ 52.3- 48.0---
2024-07-18 03:54 pmNNE 9 13------ 52.0- 48.2---
2024-07-18 03:44 pmNNE 6 11------ 52.3- 48.9---
2024-07-18 03:34 pmNNE 6 10------ 52.3- 48.9---
2024-07-18 03:24 pmNNE 6 10------ 52.3- 48.7---
2024-07-18 03:14 pm NE 6 10------ 52.2- 48.7---
2024-07-18 03:04 pm NE 5 10------ 52.2- 48.6---
2024-07-18 02:54 pm NE 5 11------ 52.2- 48.4---
2024-07-18 02:44 pm NE 6 11------ 52.2- 48.4---
2024-07-18 02:24 pmNNE 6 10------ 52.2- 48.4---
2024-07-18 02:14 pmNNE 7 11------ 52.2- 48.4---
2024-07-18 02:04 pmNNE 7 11------ 52.2- 48.2---
2024-07-18 01:54 pm NE 7 11------ 52.2- 48.0---
2024-07-18 01:44 pmNNE 9 13------ 52.2- 47.8---
2024-07-18 01:34 pmNNE 9 14------ 52.0- 48.0---
2024-07-18 01:24 pmNNE 9 14------ 51.8- 48.0---
2024-07-18 01:14 pmNNE 8 12------ 52.0- 48.2---
2024-07-18 01:04 pmNNE 9 12------ 52.2- 48.4---
2024-07-18 12:54 pm NE 7 13------ 52.2- 48.4---
2024-07-18 12:44 pm NE 7 13------ 52.3- 48.6---
2024-07-18 12:34 pm NE 7 11------ 52.3- 48.6---
2024-07-18 12:24 pm NE 6 11------ 52.0- 48.2---
2024-07-18 12:14 pm NE 7 11------ 51.8- 48.2---
2024-07-18 12:04 pm NE 7 11------ 51.6- 48.2---
2024-07-18 11:54 am NE 7 10------ 51.4- 48.2---